| time (UTC) | temp F | wind direction | speed MPH | gust MPH | rain 1hr in | rain 24hr in | rain mn in | humidity % | barometer mb |
| 20260902160019 | 87 | 186 | 3.0 | 7.0 | 0.00 | 0.00 | 0.00 | 69 | 1015.1 |
| 20260902155538 | 87 | 225 | 2.0 | 7.0 | 0.00 | 0.00 | 0.00 | 70 | 1015.4 |
| 20260902155104 | 87 | 194 | 4.0 | 7.0 | 0.00 | 0.00 | 0.00 | 70 | 1015.4 |
| 20260902154132 | 86 | 224 | 2.0 | 5.0 | 0.00 | 0.00 | 0.00 | 72 | 1015.4 |
| 20260902153525 | 86 | 158 | 2.0 | 8.0 | 0.00 | 0.00 | 0.00 | 73 | 1015.4 |
| 20260902153033 | 86 | 207 | 4.0 | 8.0 | 0.00 | 0.00 | 0.00 | 72 | 1015.4 |
| 20260902152539 | 86 | 188 | 1.0 | 7.0 | 0.00 | 0.00 | 0.00 | 74 | 1015.3 |
| 20260902152055 | 85 | 188 | 3.0 | 7.0 | 0.00 | 0.00 | 0.00 | 73 | 1015.3 |
| 20260902151610 | 85 | 180 | 3.0 | 7.0 | 0.00 | 0.00 | 0.00 | 73 | 1015.3 |
| 20260902151114 | 85 | 170 | 1.0 | 5.0 | 0.00 | 0.00 | 0.00 | 75 | 1015.4 |
| 20260902150518 | 85 | 188 | 2.0 | 5.0 | 0.00 | 0.00 | 0.00 | 76 | 1015.4 |
| 20260902145519 | 84 | 205 | 2.0 | 7.0 | 0.00 | 0.00 | 0.00 | 77 | 1015.4 |
| 20260902145032 | 84 | 195 | 3.0 | 7.0 | 0.00 | 0.00 | 0.00 | 76 | 1015.4 |
| 20260902144553 | 84 | 184 | 3.0 | 5.0 | 0.00 | 0.00 | 0.00 | 77 | 1015.4 |
| 20260902144116 | 84 | 209 | 2.0 | 4.0 | 0.00 | 0.00 | 0.00 | 77 | 1015.3 |
| 20260902143521 | 83 | 207 | 1.0 | 5.0 | 0.00 | 0.00 | 0.00 | 79 | 1015.3 |
| 20260902143045 | 83 | 208 | 1.0 | 4.0 | 0.00 | 0.00 | 0.00 | 80 | 1015.3 |
| 20260902142033 | 81 | 238 | 2.0 | 5.0 | 0.00 | 0.00 | 0.00 | 80 | 1015.3 |
| 20260902141542 | 81 | 163 | 2.0 | 6.0 | 0.00 | 0.00 | 0.00 | 80 | 1015.3 |
| 20260902141018 | 81 | 212 | 3.0 | 6.0 | 0.00 | 0.00 | 0.00 | 80 | 1015.2 |
| 20260902140542 | 81 | 217 | 0.0 | 5.0 | 0.00 | 0.00 | 0.00 | 82 | 1015.2 |